Location: Llanfihangel-Ystrad
(52.1833°N, 4.1667°W)
Time: 02:25:17
(UTC+00:00)

STARLINK-1089 - Pass Details

Date: 17 February 2020
Orbit: 379 x 380 km, 53.0° (Epoch: 05 April)

Event Time Altitude Azimuth Distance (km) Brightness Sun altitude
Exits shadow 05:24:42 - 176° (S) 1,734 6.2 -19.7°
Reaches altitude 10° 05:26:25 10° 150° (SSE) 1,406 6.0 -19.4°
Drops below altitude 10° 05:28:00 10° 121° (ESE) 1,408 6.5 -19.2°
Enters shadow 06:23:40 -72° 247° (WSW) 12,540 10.4 -10.6°
Maximum altitude 07:02:26 45° 154° (SSE) 536 4.0 -4.8°
